Regional Weather Roundup
Issued by NWS

Home | Current Version | Previous Version | Graphics & Text | Print | Product List | Glossary On
Versions: 1 2 3 4 5 6 7 8 9 10 11 12 13 14 15 16 17 18 19 20 21 22 23 24 25 26 27 28 29 30 31 32 33 34 35 36 37 38 39 40 41 42 43 44 45 46 47 48 49 50
000
ASUS44 KMEG 231210
RWRTN
TENNESSEE HOURLY STATE WEATHER ROUNDUP
NATIONAL WEATHER SERVICE MEMPHIS TN
700 AM CDT FRI JUN 23 2017

TNZ002-004-019-021-049-052-054-088>092-231300-
WEST TENNESSEE

CITY           SKY/WX    TMP DP  RH WIND       PRES   REMARKS
MEMPHIS INTL   RAIN      75  74  96 S20G33    29.64F FOG
NWS MEMPHIS      N/A     74 N/A N/A MISG        N/A
JACKSON        PTSUNNY   78  73  84 S13G23    29.73F
SOMERVILLE     CLOUDY    75  73  94 S12G24    29.69F FOG
COVINGTON      CLOUDY    75  73  94 S13G22    29.67F FOG
UNION CITY     CLOUDY    77  73  88 S12       29.71F HAZE
BOLIVAR        CLOUDY    77  72  83 SE12G24   29.73F
PARIS          CLOUDY    77  72  83 S16G24    29.75F
HUNTINGDON     CLOUDY    77  72  83 S13       29.75F
LEXINGTON      PTSUNNY   77  72  83 VRB7G16   29.79S
SELMER         PTSUNNY   77  72  83 S18G29    29.77F
SAVANNAH       CLOUDY    79  72  78 S17G24    29.78F
$$

TNZ008-025-027-028-033-062-065-066-231300-
NORTH MIDDLE TENNESSEE

CITY           SKY/WX    TMP DP  RH WIND       PRES   REMARKS
NASHVILLE      MOSUNNY   78  71  79 S14       29.85S
PORTLAND       MOSUNNY   77  72  83 S14G20    29.84R
CLARKSVILLE    SUNNY     77  70  79 S10G17    29.79F
SMYRNA         MOSUNNY   77  72  84 S8        29.86F
COOKEVILLE     CLOUDY    73  72  94 S8        29.90S
GALLATIN       SUNNY     77  73  88 S10       29.87S
CROSSVILLE     LGT RAIN  70  68  93 VRB3      29.97S FOG
$$

TNZ061-075-076-078-094-096-097-231300-
SOUTH MIDDLE TENNESSEE

CITY           SKY/WX    TMP DP  RH WIND       PRES   REMARKS
FAYETTEVILLE   CLOUDY    75  73  94 S10       29.90S FOG
TULLAHOMA        N/A     73  72  94 S9        29.92S
WINCHESTER     CLOUDY    75  72  88 S8          N/A
MCMINNVILLE    PTSUNNY   75  75 100 VRB3      29.92S
COLUMBIA       MOSUNNY   77  72  83 S13G20    29.83F
SHELBYVILLE    CLOUDY    75  72  88 S12       29.88F
$$

TNZ017-018-042-046-047-231300-
NORTHEAST TENNESSEE

CITY           SKY/WX    TMP DP  RH WIND       PRES   REMARKS
TRI CITIES     PTSUNNY   73  70  90 CALM      29.99R
ELIZABETHTON   MOSUNNY   72  70  94 CALM      30.00S
$$

TNZ012-013-036-069-073-074-231300-
CENTRAL EAST TENNESSEE

CITY           SKY/WX    TMP DP  RH WIND       PRES   REMARKS
KNOXVILLE      CLOUDY    75  67  76 SW10      29.94S
OAK RIDGE      CLOUDY    74  69  85 VRB6      29.96S
DOWNTOWN KNOXV CLOUDY    72  72 100 CALM      29.94S FOG
GATLINBURG     MOSUNNY   70  70 100 CALM      29.95S
MORRISTOWN     MOSUNNY   73  72  94 CALM      29.96S
JACKSBORO      CLOUDY    73  70  88 S7G14     29.97S
$$

TNZ083-085-099-231300-
SOUTHEAST TENNESSEE

CITY           SKY/WX    TMP DP  RH WIND       PRES   REMARKS
CHATTANOOGA    PTSUNNY   74  71  91 S10       29.95S FOG
$$

SKY/WX REPORTED AS FAIR MEANS FEW OR NO CLOUDS BELOW
12 THOUSAND FEET.




USA.gov is the U.S. government's official web portal to all federal, state and local government web resources and services.